Weather History for K12N - December, 2012

Change the Weather History Date:

Saturday, December 29, 2012

  Actual Average (KFWN) Record (KFWN)
Temperature  
Mean Temperature 24 °F -  
Max Temperature 30 °F 38 °F 63 °F (1982)
Min Temperature 19 °F 17 °F -5 °F (1960)
Degree Days  
Heating Degree Days 40    
Moisture  
Dew Point 23 °F    
Average Humidity 86    
Maximum Humidity 92    
Minimum Humidity 72    
Precipitation  
Precipitation 0.32 in - - ()
Sea Level Pressure  
Sea Level Pressure 29.78 in    
Wind  
Wind Speed 2 mph (NNE)    
Max Wind Speed 7 mph    
Max Gust Speed -    
Averages and records for this station are not official NWS values.
T = Trace of Precipitation, MM = Missing Value Source: NWS Daily Summary

Daily Weather History Graph

Daily Weather History Graph

Search for Another Location

Airport or City:

Trip Planner

Search our weather history database for the weather conditions in past years. The results will help you decide how hot, cold, wet, or windy it might be!

Date:

Astronomy

Dec. 29, 2012 Rise Set
Actual Time 7:23 AM EST 4:39 PM EST
Civil Twilight 6:52 AM EST 5:10 PM EST
Nautical Twilight 6:17 AM EST 5:44 PM EST
Astronomical Twilight 5:44 AM EST 6:18 PM EST
Moon 6:10 PM EST 7:54 AM EST
Length of Visible Light 10h 17m
Length of Day
9h 15m
Full, 98% of the Moon is Illuminated
Dec 29
Full
Jan 4
Last Quarter
Jan 11
New
Jan 18
First Quarter
Jan 26
Full

Hourly Weather History & Observations

Time (EST) Temp. Windchill Dew Point Humidity Pressure Visibility Wind Dir Wind Speed Gust Speed Precip Events Conditions
12:54 AM 19.9 °F - 18.0 °F 92% 30.05 in - Calm Calm - 0.02 in   Unknown
1:54 AM 21.9 °F - 19.0 °F 89% 30.05 in - Calm Calm - 0.02 in   Unknown
2:54 AM 24.1 °F - 21.9 °F 91% 30.04 in - Calm Calm - N/A   Unknown
3:54 AM 25.0 °F - 21.9 °F 88% 30.03 in - Calm Calm - N/A   Unknown
4:54 AM 25.0 °F - 21.9 °F 88% 30.01 in - Calm Calm - N/A   Unknown
5:54 AM 26.1 °F - 21.9 °F 84% 29.98 in - Calm Calm - N/A   Unknown
6:54 AM 26.1 °F - 21.9 °F 84% 29.95 in - Calm Calm - N/A   Unknown
7:54 AM 26.1 °F 21.9 °F 21.9 °F 84% 29.92 in - Variable 3.5 mph - N/A   Unknown
8:54 AM 26.1 °F 21.9 °F 21.9 °F 84% 29.91 in - North 3.5 mph - 0.02 in   Unknown
9:54 AM 27.0 °F 21.6 °F 21.9 °F 81% 29.88 in - Variable 4.6 mph - N/A   Unknown
10:54 AM 27.0 °F 21.6 °F 23.0 °F 85% 29.81 in - Variable 4.6 mph - N/A   Unknown
11:00 AM - - - N/A% - - North - - N/A   Unknown
11:54 AM 28.0 °F 24.2 °F 24.1 °F 85% 29.74 in - NNE 3.5 mph - N/A   Unknown
12:54 PM 27.0 °F 23.0 °F 25.0 °F 92% 29.70 in - NE 3.5 mph - 0.05 in   Unknown
1:54 PM 28.0 °F - 25.0 °F 88% 29.67 in - Calm Calm - 0.07 in   Unknown
2:54 PM 28.0 °F 20.8 °F 25.0 °F 88% 29.64 in - NE 6.9 mph - 0.05 in   Unknown
3:54 PM 28.0 °F 22.8 °F 25.0 °F 88% 29.61 in - Variable 4.6 mph - 0.03 in   Unknown
4:54 PM 28.0 °F 20.8 °F 25.0 °F 88% 29.57 in - NNE 6.9 mph - 0.02 in   Unknown
5:54 PM 28.0 °F 24.2 °F 25.0 °F 88% 29.58 in - North 3.5 mph - 0.01 in   Unknown
6:54 PM 28.0 °F 24.2 °F 25.0 °F 88% 29.57 in - North 3.5 mph - N/A   Unknown
7:54 PM 28.0 °F 22.8 °F 26.1 °F 92% 29.58 in - North 4.6 mph - N/A   Unknown
8:54 PM 28.9 °F 25.2 °F 26.1 °F 89% 29.60 in - North 3.5 mph - N/A   Unknown
9:54 PM 30.0 °F 25.2 °F 26.1 °F 85% 29.62 in - Variable 4.6 mph - 0.03 in   Unknown
10:54 PM 30.9 °F 25.2 °F 24.1 °F 76% 29.65 in - Variable 5.8 mph - N/A   Unknown
11:54 PM 30.0 °F 25.2 °F 21.9 °F 72% 29.65 in - Variable 4.6 mph - N/A   Unknown